Regional Weather Roundup
Issued by NWS Grand Forks, ND

Home | Current Version | Previous Version | Text Only | Print | Product List | Glossary Off
Versions: 1 2 3 4 5 6 7 8 9 10 11 12 13 14 15 16 17 18 19 20 21 22 23 24 25 26 27 28 29 30 31 32 33 34 35 36 37 38 39 40 41 42 43 44 45 46 47 48 49 50

000
ASUS43 KFGF 292231
RWRFGF
PRAIRIE TO PINES  WEATHER ROUNDUP
NATIONAL WEATHER SERVICE EASTERN NORTH DAKOTA/GRAND FORKS ND
500 PM CDT TUE JUL 29 2014

 **SATELLITE DATA USED TO AUGMENT SKY COVER AT AUTOMATED STATIONS**
 *****  WEATHER ACROSS EASTERN NORTH DAKOTA  *****

CITY           SKY/WX    TMP DP  RH WIND       PRES   REMARKS
GRAND FORKS    MOSUNNY   79  56  45 NW6       30.11F
GRAND FRKS AFB MOSUNNY   77  56  48 NW5       30.13F
GRAND FRKS NWS   N/A     75 N/A N/A VRB2        N/A
DEVILS LAKE    SUNNY     75  52  43 N7        30.14F
FARGO          MOSUNNY   80  53  39 N13G23    30.12F
WAHPETON ARPT  PTCLDY    77  48  36 NW9       30.12F
$$

 ***** WEATHER ACROSS CENTRAL AND WESTERN NORTH DAKOTA  *****

CITY           SKY/WX    TMP DP  RH WIND       PRES   REMARKS
BISMARCK       PTSUNNY   81  56  42 SW8       30.16F
MINOT          MOSUNNY   73  64  73 E6        30.16F
JAMESTOWN      PTSUNNY   78  53  41 NE7       30.15F
MINOT AFB      MOSUNNY   75  62  64 SE7       30.15F
GARRISON         N/A     69  57  65 E14G26    30.17R
WILLISTON      SUNNY     85  50  29 N12G18    30.16F
DICKINSON      MOSUNNY   83  50  31 VRB5      30.14F
HETTINGER      MOSUNNY   81  47  30 CALM      30.18F
$$

 *****  OTHER AIRPORT OBSERVATIONS IN OUR AREA  *****

CITY           SKY/WX    TMP DP  RH WIND       PRES   REMARKS
WALHALLA         N/A     75  55  50 N9G17       N/A
GRAFTON AIRPOR FAIR      75  54  46 N9        30.12F
VALLEY CITY AR FAIR      77  48  36 NW12      30.14F
CANDO          FAIR      75  55  50 N6        30.16F
CAVALIER APRT  FAIR      77  50  38 N7        30.12F
GWINNER        CLEAR     75  54  46 NW7       30.15F
ROLLA            N/A     73  55  53 N8        30.17F
 ***** THE ABOVE OBSERVATIONS ARE NON NWS ARE NOT QUALITY
       CONTROLLED AND MAY MIS-REPORT RAIN FOR SNOW...
$$

  *****  WEATHER ACROSS NORTHERN MINNESOTA  *****

CITY           SKY/WX    TMP DP  RH WIND       PRES   REMARKS
FLAG ISLAND    SUNNY     75  55  50 NW16      30.05S
WARROAD        SUNNY     77  57  50 NW10      30.08S
ROSEAU         SUNNY     77  57  50 NW10      30.08F
HALLOCK        SUNNY     77  54  44 NW8       30.10F
THF RVR FALLS  MOSUNNY   75  54  46 NW12      30.11F
BAUDETTE       SUNNY     77  54  44 NW10      30.07F
WASKISH        MOSUNNY   75  61  60 W6        30.07S
CROOKSTON      SUNNY     75  55  50 NW7       30.12F
$$
  *****  WEATHER ACROSS CENTRAL AND WEST MINNESOTA  *****

CITY           SKY/WX    TMP DP  RH WIND       PRES   REMARKS
FOSSTON        MOSUNNY   75  55  50 NW9       30.12F
BEMIDJI        SUNNY     75  53  46 NW14      30.09F
PARK RAPIDS    MOSUNNY   76  52  43 NW14G22   30.10F
ELBOW LAKE     MOCLDY    74  56  52 NW8       30.12F
WADENA         MOSUNNY   73  54  49 NW13      30.11S
DETROIT LAKES  SUNNY     73  52  46 NW7       30.13F
MOORHEAD       SUNNY     77  55  47 N9        30.12F
FERGUS FALLS   MOSUNNY   73  50  43 NW8       30.11F
MORRIS MN      SUNNY     75  55  50 N8        30.12F
STAPLES        MOSUNNY   75  48  38 NW14      30.10S
$$
  *****  WEATHER ELSEWHERE ACROSS MINNESOTA  *****

CITY           SKY/WX    TMP DP  RH WIND       PRES   REMARKS
DULUTH         TSTM      63  57  81 N12G21    30.06R
INTRNTL FALLS  MOSUNNY   71  60  68 W7        30.03F
ELY            PTSUNNY   72  54  53 NW9G16    30.01S
CLOQUET        MOSUNNY   75  52  43 NW15      30.03S
WHEATON        SUNNY     73  54  49 W8        30.14F
BRAINERD       MOSUNNY   75  52  44 NW13G22   30.08F
HIBBING        SUNNY     74  56  53 W9        30.04F
ALEXANDRIA     MOSUNNY   76  53  44 W16       30.14F
SAINT CLOUD    MOSUNNY   82  54  37 NW12G18   30.07F
MINNEAPOLIS    MOSUNNY   79  54  41 W16       30.05F
$$

  *****  WEATHER ACROSS SOUTH DAKOTA  *****

CITY           SKY/WX    TMP DP  RH WIND       PRES   REMARKS
SIOUX FALLS    MOSUNNY   75  52  44 N10       30.16F
BROOKINGS      NOT AVBL
WATERTOWN      PTSUNNY   75  51  43 NE8       30.16F
HURON          MOSUNNY   79  52  38 NE6       30.15F
SISSETON         N/A     78  54  43 NW5       30.13F
ABERDEEN       PTSUNNY   76  52  43 NE8       30.15F
MITCHELL       SUNNY     79  53  40 N8        30.16F
PIERRE         MOSUNNY   83  50  31 N12G17    30.15F
MOBRIDGE       PTSUNNY   79  53  40 NE7       30.14F
RAPID CITY     PTSUNNY   72  57  59 SE9       30.23F
$$

  *****  SOME WEATHER IN NEARBY STATES *****

CITY           SKY/WX    TMP DP  RH WIND       PRES   REMARKS
GLASGOW MT     SUNNY     91  42  18 NE10      30.15F
GREAT FALLS MT SUNNY     91  40  16 VRB6      30.15F
CHEYENNE WY    LGT RAIN  64  59  83 W3        30.27F
SCOTTSBLUFF NE PTSUNNY   78  61  55 NE20G25   30.17S
OMAHA NE       PTSUNNY   80  52  37 N8        30.14F
DES MOINES IA  MOSUNNY   80  52  37 W8        30.11F
DAVENPORT IA   PTSUNNY   76  57  51 W13       30.06F
CHICAGO IL     PTSUNNY   80  50  34 NW12      29.99F
EAU CLAIRE WI  LGT RAIN  69  60  73 NW12G20   30.05R
LA CROSSE WI   PTSUNNY   72  55  55 E10       30.03F
$$

  *****  SOME NATIONAL WEATHER *****

CITY           SKY/WX    TMP DP  RH WIND       PRES   REMARKS
LA GUARDIA NY  PTSUNNY   75  50  41 NW8       29.90R
RALEIGH NC     MOSUNNY   81  55  40 SE5       29.94S
ATLANTA GA     MOSUNNY   81  57  43 N10       29.99R
NEW ORLEANS LA PTSUNNY   88  66  48 VRB6      30.02F HX  90
OKLAHOMA CITY  CLOUDY    83  62  49 W14       30.12F
ALBUQUERQUE NM PTSUNNY   83  54  36 S5        30.17F THUNDER
SALT LAKE CITY CLOUDY    69  64  84 SW7       30.18S
LOS ANGELES CA PTSUNNY   77  61  57 W9        29.97F
BOISE ID       PTSUNNY   93  51  23 W13       30.00F HX  90
SEATTLE WA     SUNNY     85  50  29 N12       30.12F
$$

*** WEATHER ACROSS MANITOBA...SASKATCHEWAN AND ONTARIO ***
                ***ONTARIO***

CITY           SKY/WX    TMP DP  RH WIND       PRES   REMARKS
GERALDTON      PTSUNNY  N/A N/A N/A N8          N/A
THUNDER BAY    PTSUNNY   68  59  73 S5        29.97S
SIOUX LOOKOUT  PTSUNNY   72  52  49 VRB5      30.04S
TORONTO        CLOUDY    68  52  56 W10       29.93S
BIG TROUT LK   SUNNY     70  45  40 N7        30.06S
PICKLE LAKE    MOSUNNY   66  46  48 NE6       30.05S
DRYDEN         MOSUNNY   68  61  77 CALM      30.05R
KENORA         CLOUDY    77  54  44 N12G17    30.06S
$$
                *** MANITOBA***

CITY           SKY/WX    TMP DP  RH WIND       PRES   REMARKS
BRANDON        MOSUNNY   77  50  38 NE7       30.15F
DAUPHIN        SUNNY     79  54  41 VRB2      30.14
ISLAND LAKE    PTSUNNY   75  55  50 SE3       30.08S
PILOT MOUND      N/A     73  50  43 N5          N/A
THE PAS        MOSUNNY   82  55  39 NW5       30.09F
THOMPSON       PTSUNNY   81  57  44 E5        30.08S
WINNIPEG       MOSUNNY   77  57  50 NW12      30.12S
LYNN LAKE      SUNNY     84  46  26 N8        30.09
CHURCHILL      SUNNY     66  54  63 NE8       30.11F
GILLAM         MOSUNNY   73  50  43 NE5       30.10F
$$
                ***SASKATCHEWAN***

CITY           SKY/WX    TMP DP  RH WIND       PRES   REMARKS
ESTEVAN        MOSUNNY   77  59  53 N8        30.17F
KINDERSLEY     MOSUNNY   81  59  47 SE14      30.17F
LLOYDMINSTER   MOSUNNY   81  61  50 S13G20    30.15F
PRINCE ALBERT  MOSUNNY   79  59  50 SE3       30.17F
REGINA         MOSUNNY   79  57  47 N6        30.20S
YORKTON        MOSUNNY   75  54  46 NE5       30.18
N. BATTLEFORD    N/A     81  64  57 SE8       30.19F
LA RONGE       MOSUNNY   82  50  32 SE10      30.14F
SASKATOON      MOSUNNY   81  59  47 N6        30.20F
SWIFT CURRENT  SUNNY     82  50  32 E12       30.19F
$$
NOTE: THESE ARE AUTOMATED STATIONS WITH LIMITED QUALITY CONTROL
      "FAIR" INDICATES FEW OR NO CLOUDS BELOW 12,000 FEET WITH NO
      SIGNIFICANT WEATHER AND/OR OBSTRUCTIONS TO VISIBILITY.
      SKY/WX - SKY CONDITION AND SIGNIFICANT WEATHER.
      TMP - AIR TEMPERATURE.    DP   - DEWPOINT TEMPERATURE.
      RH  - RELATIVE HUMIDITY.  PRES - PRESSURE.
      HX  - HEAT INDEX.         WCI  - WIND CHILL INDEX.
$



USA.gov is the U.S. government's official web portal to all federal, state and local government web resources and services.